Location: Marcé
(47.5801°N, 0.3280°W)
Time: 20:57:37
(UTC+01:00)

Vanguard 1 - Pass Details

Date: 03 December 2021
Orbit: 652 x 3830 km, 34.2° (Epoch: 16 January)

Event Time Altitude Azimuth Distance (km) Brightness Sun altitude
Rises 01:06:08 0° 230° (SW) 7,365 - -64.3°
Reaches altitude 10° 01:11:02 10° 225° (SW) 6,600 - -64.2°
Maximum altitude 01:32:08 48° 160° (SSE) 4,479 - -63.2°
Exits shadow 01:43:50 28° 108° (ESE) 5,005 13.5 -62.4°
Drops below altitude 10° 01:50:44 10° 95° (E) 5,914 14.1 -61.8°
Sets 01:54:48 0° 90° (E) 6,588 14.5 -61.5°
